Weather in Lavrentyevo

Russia / Republic of Mordovia     54°29′29″N   43°03′03″E
temp.,
°C
wind,
m/s
gust,
m/s
humid.,
%
clouds,
%
prec.,
mm/h
press.,
hPa
HPBL,
m
4 march, thu
thu400:00−1w51193100 0.3 1008765
03:00−2wsw51192100 0.3 1006769
06:00−2wsw61294100 0.2 1003800
09:000wsw71497100 1.6 1000950
12:000wsw71495100 0.6 999923
15:000w71295100 1.5 999907
18:00−1wsw41097100 0.7 1000633
21:00−2nw2585100 2.4 1000177
5 march, fri
fri500:00−4wnw1298100 0.6 100052
03:00−4n2498100 1.3 1001139
06:00−7nnw2396100 0.1 100368
09:00−7nnw239489 0.1 1006180
12:00−3nw248631 0.0 1007582
15:00−3w358558 0.1 1009806
18:00−6wsw399590 0.1 1010290
21:00−8w389584 0.3 1012203
6 march, sat
sat600:00−10w239555 0.0 101482
03:00−13wnw229528 0.0 101522
06:00−14nnw12970 0.0 101620
09:00−10nne12860 0.0 1017141
12:00−5ene11730 0.0 1017520
15:00−5e127410 0.0 1015784
18:00−9sse229399 0.0 101541
21:00−12ssw229497 0.1 101543
7 march, sun
sun700:00−11wsw239799 0.3 101560
03:00−13w129793 0.6 101421
06:00−14sw239729 0.0 101359
09:00−10sw5128751 0.0 1010485
12:00−6sw71384100 0.0 1007872
15:00−4sw81584100 0.2 10021221
18:00−4sw71593100 2.0 9981275
21:00−5wnw61182100 3.8 998994
8 march, mon
mon800:00−11wsw3108567 0.0 1000227
03:00−11sw4138133 0.0 1001318
06:00−11ssw413830 0.0 1000351
09:00−8ssw511890 0.0 998481
12:00−4sw61092100 0.6 9961000
15:00−6w7127897 2.2 9981411
18:00−8w51285100 0.1 1002862
21:00−10wnw61388100 0.2 1006741